This is the latest recevied weather packets stored in our database for station/object LETO. If no packets are shown the sender has not sent any weather packets the latest 1 day(s).
| Time | Temp. | Humidity | Pressure | Rain* | Wind** | Luminosity | Snow |
|---|---|---|---|---|---|---|---|
| 1777997029 | 18.89° C | 25% | 1011 hPa | - | 5.36 m/s, 270° | - | - |
| 1777996425 | 18.89° C | 25% | 1011 hPa | - | 5.36 m/s, 270° | - | - |
| 1777995941 | 18.89° C | 25% | 1011 hPa | - | 5.36 m/s, 270° | - | - |
| 1777995221 | 18.89° C | 25% | 1011 hPa | - | 5.81 m/s, 280° | - | - |
| 1777994623 | 18.89° C | 25% | 1011 hPa | - | 5.81 m/s, 280° | - | - |
| 1777994021 | 18.89° C | 25% | 1011 hPa | - | 5.81 m/s, 280° | - | - |
| 1777993419 | 18.89° C | 24% | 1011 hPa | - | 3.58 m/s, 270° | - | - |
| 1777992821 | 18.89° C | 24% | 1011 hPa | - | 3.58 m/s, 270° | - | - |
| 1777992220 | 18.89° C | 24% | 1011 hPa | - | 3.58 m/s, 270° | - | - |
| 1777991619 | 18.89° C | 25% | 1012 hPa | - | 5.36 m/s, 240° | - | - |
| 1777991021 | 18.89° C | 25% | 1012 hPa | - | 5.36 m/s, 240° | - | - |
| 1777990420 | 18.89° C | 25% | 1012 hPa | - | 5.36 m/s, 240° | - | - |
| 1777989819 | 17.78° C | 27% | 1012 hPa | - | 4.47 m/s, 260° | - | - |
| 1777989219 | 17.78° C | 27% | 1012 hPa | - | 4.47 m/s, 260° | - | - |
| 1777988622 | 17.78° C | 27% | 1012 hPa | - | 4.47 m/s, 260° | - | - |
| 1777988020 | 16.67° C | - | 1012 hPa | - | 4.47 m/s, 250° | - | - |
| 1777987421 | 16.67° C | - | 1012 hPa | - | 4.47 m/s, 250° | - | - |
| 1777986819 | 16.67° C | - | 1012 hPa | - | 4.47 m/s, 250° | - | - |
| 1777986219 | 16.67° C | - | 1012 hPa | - | 4.02 m/s, 260° | - | - |
| 1777985622 | 16.67° C | - | 1012 hPa | - | 4.02 m/s, 260° | - | - |
| 1777985023 | 16.67° C | - | 1012 hPa | - | 4.02 m/s, 260° | - | - |
| 1777984419 | 16.67° C | 33% | 1012 hPa | - | 4.47 m/s, 240° | - | - |
| 1777983817 | 16.67° C | 33% | 1012 hPa | - | 4.47 m/s, 240° | - | - |
| 1777983217 | 16.67° C | 33% | 1012 hPa | - | 4.47 m/s, 240° | - | - |
| 1777982621 | 16.67° C | 36% | 1013 hPa | - | 4.47 m/s, 230° | - | - |
* Rain since midnight (hover to see other rain measurements)
** Current wind speed in m/s (hover to see current wind gust speed)